Hourly Weather Lugovskoe

Today, 20 June, Sunday

Time Temperature Precipitation Wind Pressure Humidity
00:00 +19°C° 0 mm 1 mps 765 mmHg 66%
01:00 +19°C° 0 mm 1 mps 765 mmHg 68%
02:00 +18°C° 0 mm 1 mps 765 mmHg 71%
03:00 +18°C° 0 mm 1 mps 765 mmHg 72%
04:00 +19°C° 0 mm 1 mps 765 mmHg 71%
05:00 +20°C° 0 mm 1 mps 765 mmHg 70%
06:00 +21°C° 0 mm 1 mps 765 mmHg 69%
07:00 +22°C° 0 mm 1 mps 765 mmHg 64%
08:00 +24°C° 0 mm 1 mps 765 mmHg 60%
09:00 +26°C° 0 mm 1 mps 765 mmHg 54%
10:00 +27°C° 0 mm 1 mps 765 mmHg 50%
11:00 +29°C° 0 mm 1 mps 764 mmHg 45%
12:00 +28°C° 0 mm 0 mps 764 mmHg 41%
13:00 +28°C° 0 mm 0 mps 764 mmHg 40%
14:00 +31°C° 0 mm 1 mps 764 mmHg 39%
15:00 +31°C° 0 mm 1 mps 763 mmHg 37%
16:00 +31°C° 0 mm 1 mps 763 mmHg 42%
17:00 +30°C° 0 mm 1 mps 763 mmHg 46%
18:00 +30°C° 0 mm 1 mps 762 mmHg 51%
19:00 +28°C° 0 mm 1 mps 763 mmHg 54%
20:00 +26°C° 0 mm 1 mps 763 mmHg 57%
21:00 +22°C° 0 mm 0 mps 763 mmHg 60%
22:00 +24°C° 0 mm 1 mps 763 mmHg 62%
23:00 +23°C° 0 mm 1 mps 763 mmHg 64%

Tomorrow, 21 June, Monday

Time Temperature Precipitation Wind Pressure Humidity
00:00 +23°C° 0 mm 1 mps 763 mmHg 66%
01:00 +22°C° 0 mm 1 mps 763 mmHg 68%
02:00 +22°C° 0 mm 1 mps 763 mmHg 71%
03:00 +21°C° 0 mm 1 mps 763 mmHg 73%
04:00 +22°C° 0 mm 1 mps 763 mmHg 72%
05:00 +23°C° 0 mm 1 mps 763 mmHg 71%
06:00 +24°C° 0 mm 1 mps 764 mmHg 70%
07:00 +26°C° 0 mm 1 mps 764 mmHg 65%
08:00 +27°C° 0 mm 2 mps 764 mmHg 61%
09:00 +29°C° 0 mm 2 mps 764 mmHg 56%
10:00 +30°C° 0 mm 2 mps 764 mmHg 53%
11:00 +31°C° 0 mm 1 mps 763 mmHg 49%
12:00 +31°C° 0 mm 1 mps 763 mmHg 45%
13:00 +32°C° 0 mm 1 mps 763 mmHg 44%
14:00 +32°C° 0 mm 1 mps 763 mmHg 42%
15:00 +33°C° 0 mm 1 mps 763 mmHg 40%
16:00 +32°C° 0 mm 1 mps 762 mmHg 44%
17:00 +32°C° 0 mm 1 mps 762 mmHg 49%
18:00 +31°C° 0 mm 2 mps 762 mmHg 53%
19:00 +29°C° 0 mm 2 mps 762 mmHg 57%
20:00 +28°C° 0 mm 2 mps 762 mmHg 60%
21:00 +26°C° 0 mm 2 mps 763 mmHg 64%
22:00 +25°C° 0 mm 2 mps 763 mmHg 65%
23:00 +25°C° 0 mm 2 mps 763 mmHg 67%

Day after tomorrow, 22 June, Tuesday

Time Temperature Precipitation Wind Pressure Humidity
00:00 +24°C° 0 mm 2 mps 763 mmHg 68%
01:00 +24°C° 0 mm 2 mps 763 mmHg 69%
02:00 +23°C° 0 mm 2 mps 763 mmHg 70%
03:00 +23°C° 0 mm 2 mps 763 mmHg 71%
04:00 +23°C° 0 mm 2 mps 763 mmHg 71%
05:00 +24°C° 0 mm 2 mps 763 mmHg 71%
06:00 +25°C° 0 mm 2 mps 763 mmHg 71%
07:00 +27°C° 0 mm 2 mps 763 mmHg 63%
08:00 +28°C° 0 mm 2 mps 763 mmHg 55%
09:00 +30°C° 0 mm 2 mps 763 mmHg 46%
10:00 +31°C° 0 mm 2 mps 763 mmHg 42%
11:00 +34°C° 0 mm 2 mps 763 mmHg 38%
12:00 +35°C° 0 mm 2 mps 763 mmHg 34%
13:00 +35°C° 0 mm 2 mps 763 mmHg 33%
14:00 +35°C° 0 mm 2 mps 763 mmHg 32%
15:00 +36°C° 0 mm 2 mps 762 mmHg 32%
16:00 +35°C° 0 mm 2 mps 762 mmHg 36%
17:00 +35°C° 0 mm 2 mps 762 mmHg 41%
18:00 +33°C° 0 mm 1 mps 762 mmHg 46%
19:00 +31°C° 0 mm 2 mps 762 mmHg 48%
20:00 +30°C° 0 mm 2 mps 762 mmHg 50%
21:00 +28°C° 0 mm 2 mps 762 mmHg 53%
22:00 +27°C° 0 mm 2 mps 762 mmHg 54%
23:00 +26°C° 0 mm 2 mps 762 mmHg 56%

23 June, Wednesday

Time Temperature Precipitation Wind Pressure Humidity
00:00 +25°C° 0 mm 2 mps 762 mmHg 58%
01:00 +25°C° 0 mm 2 mps 762 mmHg 60%
02:00 +24°C° 0 mm 2 mps 763 mmHg 61%
03:00 +24°C° 0 mm 2 mps 763 mmHg 63%
04:00 +24°C° 0 mm 2 mps 763 mmHg 63%
05:00 +25°C° 0 mm 2 mps 763 mmHg 63%
06:00 +26°C° 0 mm 2 mps 763 mmHg 63%
07:00 +27°C° 0 mm 2 mps 763 mmHg 57%
08:00 +29°C° 0 mm 2 mps 763 mmHg 51%
09:00 +31°C° 0 mm 2 mps 763 mmHg 45%
10:00 +32°C° 0 mm 2 mps 763 mmHg 41%
11:00 +34°C° 0 mm 2 mps 763 mmHg 38%
12:00 +35°C° 0 mm 2 mps 763 mmHg 34%
13:00 +35°C° 0 mm 1 mps 762 mmHg 32%
14:00 +35°C° 0 mm 1 mps 762 mmHg 30%
15:00 +36°C° 0 mm 1 mps 762 mmHg 28%
16:00 +35°C° 0 mm 1 mps 762 mmHg 33%
17:00 +35°C° 0 mm 1 mps 762 mmHg 37%
18:00 +35°C° 0 mm 2 mps 762 mmHg 41%
19:00 +32°C° 0 mm 2 mps 762 mmHg 46%
20:00 +29°C° 0 mm 2 mps 762 mmHg 51%
21:00 +27°C° 0 mm 3 mps 762 mmHg 56%
22:00 +27°C° 0 mm 2 mps 762 mmHg 58%
23:00 +26°C° 0 mm 2 mps 762 mmHg 60%

24 June, Thursday

Time Temperature Precipitation Wind Pressure Humidity
00:00 +25°C° 0 mm 2 mps 762 mmHg 63%
01:00 +25°C° 0 mm 2 mps 762 mmHg 64%
02:00 +24°C° 0 mm 1 mps 762 mmHg 65%
03:00 +24°C° 0 mm 1 mps 763 mmHg 66%
04:00 +25°C° 0 mm 1 mps 763 mmHg 66%
05:00 +25°C° 0 mm 1 mps 763 mmHg 65%
06:00 +26°C° 0 mm 1 mps 763 mmHg 65%
07:00 +28°C° 0 mm 1 mps 763 mmHg 60%
08:00 +29°C° 0 mm 1 mps 763 mmHg 55%
09:00 +31°C° 0 mm 1 mps 763 mmHg 50%
10:00 +32°C° 0 mm 1 mps 762 mmHg 47%
11:00 +33°C° 0 mm 1 mps 762 mmHg 43%
12:00 +34°C° 0 mm 1 mps 762 mmHg 40%
13:00 +35°C° 0 mm 1 mps 762 mmHg 38%
14:00 +35°C° 0 mm 1 mps 762 mmHg 36%
15:00 +35°C° 0 mm 1 mps 761 mmHg 34%
16:00 +34°C° 0 mm 1 mps 761 mmHg 38%
17:00 +34°C° 0 mm 1 mps 761 mmHg 43%
18:00 +33°C° 0 mm 1 mps 760 mmHg 47%
19:00 +32°C° 0 mm 2 mps 761 mmHg 48%
20:00 +30°C° 0 mm 2 mps 761 mmHg 50%
21:00 +28°C° 0 mm 2 mps 761 mmHg 51%
22:00 +27°C° 0 mm 2 mps 761 mmHg 59%
23:00 +25°C° 0 mm 2 mps 761 mmHg 66%

25 June, Friday

Time Temperature Precipitation Wind Pressure Humidity
00:00 +24°C° 0 mm 2 mps 760 mmHg 74%
01:00 +24°C° 0 mm 2 mps 760 mmHg 75%
02:00 +23°C° 0 mm 2 mps 760 mmHg 76%
03:00 +23°C° 0 mm 2 mps 761 mmHg 78%
04:00 +24°C° 0 mm 2 mps 761 mmHg 75%
05:00 +25°C° 0 mm 2 mps 761 mmHg 73%
06:00 +26°C° 0 mm 2 mps 761 mmHg 71%
07:00 +27°C° 0 mm 2 mps 761 mmHg 65%
08:00 +28°C° 0 mm 2 mps 760 mmHg 60%
09:00 +30°C° 0 mm 2 mps 760 mmHg 54%
10:00 +31°C° 0 mm 2 mps 760 mmHg 51%
11:00 +32°C° 0 mm 2 mps 760 mmHg 47%
12:00 +34°C° 0 mm 2 mps 760 mmHg 44%
13:00 +34°C° 0 mm 2 mps 759 mmHg 42%
14:00 +35°C° 0 mm 2 mps 759 mmHg 41%
15:00 +35°C° 0 mm 2 mps 759 mmHg 40%
16:00 +35°C° 0 mm 2 mps 759 mmHg 43%
17:00 +34°C° 0 mm 1 mps 758 mmHg 46%
18:00 +33°C° 0 mm 1 mps 758 mmHg 49%
19:00 +31°C° 0.1 mm 2 mps 758 mmHg 56%
20:00 +29°C° 0.1 mm 3 mps 758 mmHg 62%
21:00 +26°C° 0.1 mm 4 mps 758 mmHg 69%
22:00 +26°C° 0 mm 3 mps 758 mmHg 71%
23:00 +25°C° 0 mm 2 mps 758 mmHg 74%
Show more

We Need Your Consent

Meteoprog and our Service Providers may store and access personal data such as cookies, device identifiers or other similar technologies on your device and process such data to personalise content and ads, as well as provide social media features and to analyse the traffic.

  • Store and/or access information on your device

    Cookies, device identifiers or other information can be stored or accessed on your device for the purposes indicated above.

  • Personalised ads and content, ad and content measurement, audience insights, and products development

    Ads and content can be personalised based on a profile. More data can be added to better personalise ads and content. Ad and content performance can be measured. Insights about the audience who saw the ads and content can be derived. Such data can be used to develop or improve user’s experience, systems and software.

By clicking ‘I Agree’ you will allow the use of indicated cookies, device identifiers, web beacons or other similar technologies. Your settings can be changed in the browser on your device.

For certain purposes, legitimate interests may be relied on, rather than consent. You can read more about this in our Privacy and Cookie Policy.